Orbital Elements at Epoch 2459000.5 (2020-May-31.0) TDB
Reference: JPL 20 (heliocentric ecliptic J2000)
Element | Value | Uncertainty (1-sigma) | Units |
e | .1295106476367882 | 5.4061e-08 | |
a | 2.354806342744169 | 8.4881e-09 | au |
q | 2.049833848236155 | 1.292e-07 | au |
i | 6.885358014735639 | 5.7314e-06 | deg |
node | 337.2719725925961 | 2.9763e-05 | deg |
peri | 5.424978461953462 | 3.3406e-05 | deg |
M | 320.3038006449909 | 1.4406e-05 | deg |
tp | 2459146.038417873997 (2020-Oct-23.53841787) | 5.2781e-05 | TDB |
period | 1319.870196289396 3.61 | 7.1364e-06 1.954e-08 | d yr |
n | .272754094313276 | 1.4748e-09 | deg/d |
Q | 2.659778837252182 | 9.5874e-09 | au |
|
| | Orbit Determination Parameters
Additional Information
|